AQI (37)

Current Conditions for Foresthill, CA. Sunny, Dry   
Visibility: 10 miles
Space WX Alerts: WATCH:  Geomagnetic Storm Category G1 Predicted ( Latest Alert ) - Issue Time: 2018 Jul 21 1831 UTC

  Summary / Temperature 

Current Temperature
85.5°F
29.7°C
(24/hr Ago)
85.5°F
(Apparent temp)
87.2°F
Warm
Heat Index
85.8°F 

94.2°F/ 34.6°C
Evident discomfort

 Temp Rate:

 24/hr Difference:

 Avg Running Temp:

 Todays High:

 Todays Low:

 Y-days High:

 Y-days Low:

 Todays HeatIdx:

 Y-days HeatIdx:

 Evapotranspiration:

+2.4°F/hr 

0°F

82.8°F

85.4°F 1:30pm

70.5°F 6:17am

86.0°F 2:12pm

70.6°F 7:26am

86.0°F 1:16pm

85.5°F 2:17pm

0.090 in

115' Above Ground

 Temperature:

 6'AGL VRS 115'AGL:

 Avg Running Temp:

 Humidity:

 Todays High:

 Todays Low:

 Y-days High:

 Y-days Low:

85.0°F 

-0.5°F

83.6°F

46% 

85.0°F 1:07pm

72.0°F 4:03am

86.0°F 2:30pm

72.0°F 6:15am

Temp & Humidity Graphs

  Wind 

Wind Speed

 1.0 mph

Gusting to

 7.0 mph

Wind from SSW

204°  SSW

Light air

 Avg speed:

 Wind Run:

 Peak Gust:

  4.0 mph 

26.0 miles

  13.0 mph 5:39am

  Almanac  

Moon age: 10 days,6 hours,32 minutes,79%

Waxing Gibbous
79%
Illuminated
10 days in cycle

 Moonrise:

 Moonset:

 Sunrise:

 Sunset:

 Solar Noon:

4:20pm

2:04am

5:56am

8:24pm

1:10pm

1min 32s less daylight tomorrow 

  Solar Radiation 

(Current Solar)
  877 W/m2 (80%)
(Todays High)
 960 W/m2@12:58pm
Feels like: 102.9°F in the sun

Rain

 Rain Today:

 Rain Rate (/hr):

 Rain last hour:

 Rain Yesterday:

 This Month:

 Season Total:

57 Days Since Last Rain Day

0.00 in

0.000 in

0.00 in

0.00 in

0.00 in

0.00 in

Updated Time

Updated: 7/22/18  1:32pm

(Updated  sec ago)

Humidity & Barometer

 Humidity:

 Wetbulb:

 Dew Point:

 Barometer:

45% 

70.3°F 

61.7°F 

30.013 inHg 

 Baro Trend:  Steady 
Northern Calif
Preparedness
Fire 
Level 

    UV Index  

(Current UV)
6.9  High
(Todays High) @ 12:24pm
7.4   High

National Weather Service Forecast

This
Afternoon
This Afternoon: Mostly Sunny
Mostly Sunny
Tonight

Tonight: Mostly Clear
Mostly Clear
Monday

Monday: Sunny
Sunny
Monday
Night
Monday Night: Mostly Clear
Mostly Clear
Tuesday

Tuesday: Sunny
Sunny
Tuesday
Night
Tuesday Night: Mostly Clear
Mostly Clear
Hi 88 °F Lo 71 °F Hi 91 °F Lo 71 °F Hi 95 °F Lo 72 °F

Foresthill Probe 2 Stats  
Foresthill Probe 2: is located on Thomas Street
at 3000 feet. The main Foresthill Weather site
is located on Melody ln at the 2860 foot elevation

Calm
87.1°F
30.6°C
Temp Rate:
+1.2°F
Calm
Gusting to
3.0 mph
(Humidity)
45%
Wind from NW
304°  NW
Updated: 22/07/18 - 13:27:45
 Todays High: 88.2°F 13:13
 Todays Low: 69.6°F 06:55
 Rain Today: 0.00 in
 Season Total: 0.00 in

Foresthill Wx: Monthly,Yearly, Highs and Lows 

Foresthill  
This Weather Data is coming from the main Foresthill
Weather site located on Melody ln at the 2860 foot
elevation
Not Foresthill Probe 2
Weather Data
Month
  High
Month
  Low
Year
High
Year
Low
Temp 92.4°F
7/19/18
60.2°F
7/5/18
92.4°F
7/19/18
21.9°F
2/23/18
Humidity 73%
7/4/18
12%
7/8/18
100%
1/8/18
12%
7/8/18
Heat Index 91.6°F
7/18/18
63.2°F
7/5/18
91.6°F
7/18/18
27.1°F
2/20/18
Wind Chill 92.4°F
7/19/18
58.8°F
7/5/18
92.4°F
7/19/18
9.2°F
2/23/18
Wind Gust 20 mph
7/3/18
0 mph
7/1/18
43 mph
3/1/18
0 mph
1/1/18
Barometer 30.18 in
7/5/18
29.73 in
7/3/18
30.55 in
1/27/18
29.60 in
6/16/18
ET 0.25 in
7/8/18
0.00 in
7/1/18
0.25 in
6/24/18
0.00 in
1/1/18
Dew Point 65.3°F
7/15/18
28.9°F
7/8/18
65.3°F
7/15/18
7.6°F
2/11/18
Pacific Satellite US Radar Satellite Imagery Sacramento,CA.  (click to enlarge)
NWS Weather Forecast - Summary
Updated: Sunday, July 22, 2018 - 3:30am PDT
Isolated Afternoon Mountain Thunderstorms Possible into mid-week
Current Interstate Highway Conditions for I-80 & US-50

[I 80: IN THE SAN FRANCISCO BAY AREA - SOLANO CO]
no traffic restrictions are reported for this area.

[I 80: IN THE NORTHERN CALIFORNIA AREA & SIERRA NEVADA]
no traffic restrictions are reported for this area.

[US 50: IN THE SACRAMENTO VALLEY & THE LAKE TAHOE BASIN]
no traffic restrictions are reported for this area.
NWS Weather Forecast: This Afternoon and Tonight (Updated: Sun, 22-Jul-2018 1:36am PDT)
This
Afternoon
This Afternoon: Mostly Sunny
Mostly Sunny

Hi 88 °F
NWS forecast: Mostly sunny, with a high near 88. West southwest wind around 7 mph.
Tonight

Tonight: Mostly Clear
Mostly Clear

Lo 71 °F
NWS forecast: Mostly clear, with a low around 71. East southeast wind 2 to 6 mph.
YR.NO 10 Day Weather forecast
Last update: 07/22/2018 @ 00:50
Next update: 07/22/2018 @ 13:00
Provided by: 22
      Temperature Precipitation Pressure Wind  
Today
07/22/2018
12:00 18:00 88°F   30.02 inHg Light breeze from west-southwest 7 mph
  18:00 00:00 86°F   29.98 inHg Light breeze from west-southwest 6 mph
    (Click to enlarge)
meteogram

    Forecast for next 9 days

      Temperature Precip Pressure Wind  
Monday
07/23/2018
00:00 06:00 72°F   30.04 inHg Light air from east-northeast 1 mph
  06:00 12:00 63°F   30.01 inHg Light breeze from east-northeast 4 mph
  12:00 18:00 90°F   30.01 inHg Light breeze from west-southwest 7 mph
  18:00 00:00 90°F   29.95 inHg Light breeze from west-southwest 6 mph
      Temperature Precip Pressure Wind  
Tuesday
07/24/2018
00:00 06:00 68°F   29.99 inHg Light air from east-northeast 3 mph
  06:00 12:00 64°F   29.99 inHg Light breeze from east-northeast 6 mph
  12:00 18:00 91°F   29.99 inHg Light breeze from west-southwest 7 mph
  17:00 23:00 93°F   29.94 inHg Light breeze from west-southwest 7 mph
  23:00 05:00 75°F   29.99 inHg Light breeze from east 4 mph
      Temperature Precip Pressure Wind  
Wednesday
07/25/2018
05:00 11:00 64°F   29.96 inHg Light breeze from east-northeast 6 mph
  11:00 17:00 93°F   29.98 inHg Light breeze from west-southwest 6 mph
  17:00 23:00 95°F   29.93 inHg Light breeze from west-southwest 7 mph
  23:00 05:00 73°F   29.96 inHg Light breeze from east 4 mph
      Temperature Precip Pressure Wind  
Thursday
07/26/2018
05:00 11:00 63°F   29.91 inHg Light breeze from east-northeast 5 mph
  11:00 17:00 93°F   29.92 inHg Light breeze from west-southwest 6 mph
  17:00 23:00 93°F   29.86 inHg Light breeze from southwest 6 mph
  23:00 05:00 72°F   29.86 inHg Light air from east-northeast 2 mph
      Temperature Precip Pressure Wind  
Friday
07/27/2018
05:00 11:00 63°F   29.83 inHg Light breeze from east-northeast 5 mph
  11:00 17:00 91°F   29.84 inHg Light breeze from west-southwest 6 mph
  17:00 23:00 93°F   29.79 inHg Light breeze from west-southwest 6 mph
  23:00 05:00 70°F   29.83 inHg Light air from east 2 mph
      Temperature Precip Pressure Wind  
Saturday
07/28/2018
05:00 11:00 61°F   29.82 inHg Light breeze from east-northeast 5 mph
  11:00 17:00 90°F   29.86 inHg Light breeze from west-southwest 6 mph
  17:00 23:00 91°F   29.83 inHg Light breeze from southwest 6 mph
  23:00 05:00 68°F   29.89 inHg Light air from east-southeast 3 mph
      Temperature Precip Pressure Wind  
Sunday
07/29/2018
05:00 11:00 61°F   29.89 inHg Light breeze from east-northeast 5 mph
  11:00 17:00 90°F   29.92 inHg Light breeze from west-southwest 5 mph
  17:00 23:00 91°F   29.88 inHg Light breeze from southwest 6 mph
  23:00 05:00 70°F   29.93 inHg Light air from east-northeast 2 mph
      Temperature Precip Pressure Wind  
Monday
07/30/2018
05:00 11:00 63°F   29.91 inHg Light breeze from east-northeast 4 mph
  11:00 17:00 88°F   29.93 inHg Light breeze from southwest 4 mph
  17:00 23:00 93°F   29.85 inHg Light breeze from southwest 6 mph
  23:00 05:00 72°F   29.88 inHg Light air from east-northeast 3 mph
      Temperature Precip Pressure Wind  
Tuesday
07/31/2018
05:00 11:00 64°F   29.87 inHg Light breeze from east-northeast 6 mph
  11:00 17:00 93°F   29.88 inHg Light breeze from southwest 6 mph

NOAA Local Storm Report
4 MILES WEST OF WARSAW   ( More )
DATE
07/21/2018
TIME
8:00 AM
COUNTY
GALLATIN
STATE
KY
GEOGRAPHIC
38.77N 84.97W
SOURCE
OTHER FEDERAL
HEAVY RAIN MEASURED AT 2.25 INCH
markland dam automated gauge
How Close Are We To this Month's Temperature Record ?
Updated Sunday, Jul 22, 2018- 1:25:01 PM

Current Temperature: 85.5°F

July's High: Temperature Record 98.1°F - Set on Wed, Jul 29, 2015 - 2:57:00 PM
We are currently 12.6°F Less than this Month's record High

July's Low: Temperature Record 51.4°F - Set on Sun, Jul 10, 2016 - 7:04:00 AM
We are currently 34.1°F More than this Month's record Low

Weather History For Sunday, July 22, 2018


On this Day - In Weather History ...
Data courtesy of weatherforyou.com
powered by Cumulus v1.9.3 (1059)
Ambient Weather VWS v14.00
Top Contact Website Map Copyright © 2007 - 2018 Foresthillweather.com Never base important decisions on this or any weather information obtained from the Internet